TimeEDT,TemperatureF,Dew PointF,Humidity,Sea Level PressureIn,VisibilityMPH,Wind Direction,Wind SpeedMPH,Gust SpeedMPH,PrecipitationIn,Events,Conditions,WindDirDegrees,DateUTC
12:54 AM,34.0,16.0,48,30.20,10.0,NE,4.6,-,N/A,,Overcast,40,2013-04-12 04:54:00
1:54 AM,35.1,15.1,44,30.18,10.0,NNE,4.6,-,N/A,,Overcast,30,2013-04-12 05:54:00
2:54 AM,34.0,16.0,48,30.15,10.0,Calm,Calm,-,N/A,,Overcast,0,2013-04-12 06:54:00
3:54 AM,34.0,18.0,52,30.16,8.0,Calm,Calm,-,0.01,Rain,Light Rain,0,2013-04-12 07:54:00
4:28 AM,33.8,23.0,65,30.15,10.0,NE,3.5,-,0.02,Rain,Light Freezing Rain,50,2013-04-12 08:28:00
4:54 AM,32.0,21.9,66,30.15,10.0,Calm,Calm,-,0.03,,Overcast,0,2013-04-12 08:54:00
5:17 AM,32.0,23.0,69,30.14,10.0,East,3.5,-,0.00,,Light Freezing Drizzle,80,2013-04-12 09:17:00
5:28 AM,33.8,23.0,65,30.13,10.0,East,5.8,-,0.00,Rain,Light Freezing Rain,100,2013-04-12 09:28:00
5:31 AM,33.8,23.0,65,30.13,10.0,East,5.8,-,0.00,Rain,Light Rain,100,2013-04-12 09:31:00
5:54 AM,33.1,24.1,70,30.14,7.0,ESE,11.5,18.4,0.02,Rain,Light Rain,120,2013-04-12 09:54:00
6:12 AM,32.0,24.8,75,30.12,7.0,ESE,11.5,-,0.02,Rain,Light Freezing Rain,120,2013-04-12 10:12:00
6:44 AM,32.0,24.8,75,30.11,10.0,ESE,12.7,-,0.04,,Light Ice Pellets,110,2013-04-12 10:44:00
6:54 AM,32.0,25.0,75,30.12,10.0,ESE,13.8,-,0.04,,Overcast,110,2013-04-12 10:54:00
7:54 AM,33.1,27.0,78,30.09,7.0,ESE,12.7,-,0.00,Rain,Light Rain,120,2013-04-12 11:54:00
8:54 AM,33.1,28.0,82,30.04,10.0,ESE,12.7,-,0.03,Rain,Light Rain,120,2013-04-12 12:54:00
9:54 AM,34.0,28.0,79,30.01,10.0,SE,12.7,-,0.00,,Overcast,130,2013-04-12 13:54:00
10:54 AM,34.0,28.0,79,29.97,10.0,ESE,15.0,21.9,N/A,,Overcast,120,2013-04-12 14:54:00
11:42 AM,33.8,26.6,75,29.95,3.0,SSE,12.7,19.6,0.01,Rain,Light Rain,150,2013-04-12 15:42:00
11:54 AM,34.0,28.0,79,29.95,3.0,SSE,9.2,-,0.05,Rain,Light Rain,160,2013-04-12 15:54:00
12:26 PM,33.8,30.2,87,29.91,2.0,Calm,Calm,-,0.12,Rain,Light Rain,0,2013-04-12 16:26:00
12:54 PM,33.1,30.0,89,29.92,2.0,East,3.5,-,0.22,Rain,Light Rain,90,2013-04-12 16:54:00
12:59 PM,33.8,30.2,87,29.90,3.0,Calm,Calm,-,0.01,Rain,Light Rain,0,2013-04-12 16:59:00
1:15 PM,33.8,30.2,87,29.91,2.0,SSE,5.8,-,0.05,Rain,Light Rain,150,2013-04-12 17:15:00
1:54 PM,33.1,30.0,89,29.91,2.0,SE,5.8,-,0.10,,Ice Pellets,130,2013-04-12 17:54:00
2:05 PM,33.8,30.2,87,29.90,1.5,South,5.8,-,0.01,Snow,Light Snow,190,2013-04-12 18:05:00
2:10 PM,33.8,30.2,87,29.90,0.8,South,4.6,-,0.01,Snow,Light Snow,190,2013-04-12 18:10:00
2:47 PM,33.8,30.2,87,29.89,5.0,South,5.8,-,0.03,Snow,Light Snow,180,2013-04-12 18:47:00
2:54 PM,34.0,30.9,89,29.89,5.0,South,5.8,-,0.03,Snow,Light Snow,190,2013-04-12 18:54:00
3:54 PM,35.1,30.9,85,29.86,9.0,South,4.6,-,0.01,Rain,Light Rain,180,2013-04-12 19:54:00
4:18 PM,35.6,30.2,81,29.83,10.0,SSE,12.7,21.9,0.01,Rain,Light Rain,160,2013-04-12 20:18:00
4:54 PM,36.0,28.0,73,29.83,10.0,SSE,13.8,26.5,0.01,Rain,Light Rain,160,2013-04-12 20:54:00
5:54 PM,36.0,28.9,76,29.82,10.0,SSE,8.1,-,0.00,,Overcast,160,2013-04-12 21:54:00
6:54 PM,35.1,30.0,82,29.82,10.0,SSW,4.6,-,0.00,Rain,Light Rain,200,2013-04-12 22:54:00
7:54 PM,35.1,32.0,89,29.81,10.0,South,5.8,-,0.01,Rain,Light Rain,170,2013-04-12 23:54:00
8:03 PM,35.6,32.0,87,29.80,10.0,South,5.8,-,0.00,,Overcast,180,2013-04-13 00:03:00
8:13 PM,35.6,32.0,87,29.80,10.0,South,8.1,-,0.01,Rain,Light Rain,170,2013-04-13 00:13:00
8:24 PM,35.6,32.0,87,29.80,10.0,South,8.1,-,0.01,Rain,Light Rain,170,2013-04-13 00:24:00
8:54 PM,36.0,32.0,86,29.81,7.0,South,8.1,-,0.02,Rain,Light Rain,180,2013-04-13 00:54:00
9:08 PM,35.6,32.0,87,29.80,9.0,South,8.1,-,0.00,Rain,Light Rain,170,2013-04-13 01:08:00
9:28 PM,35.6,32.0,87,29.81,10.0,South,5.8,-,0.01,,Overcast,170,2013-04-13 01:28:00
9:54 PM,36.0,32.0,86,29.82,6.0,SSE,6.9,-,0.01,Rain,Light Rain,160,2013-04-13 01:54:00
10:34 PM,35.6,32.0,87,29.82,10.0,SSE,6.9,-,0.06,,Overcast,160,2013-04-13 02:34:00
10:50 PM,35.6,32.0,87,29.82,10.0,SSE,6.9,-,0.06,Snow,Light Snow,160,2013-04-13 02:50:00
10:54 PM,35.1,32.0,89,29.83,10.0,SSE,6.9,-,0.06,Snow,Light Snow,160,2013-04-13 02:54:00
11:54 PM,36.0,32.0,86,29.82,10.0,South,11.5,-,0.02,Rain,Light Rain,180,2013-04-13 03:54:00